******************************************************************************* JPL/HORIZONS (2018 VG18) 2025-Dec-12 21:17:20 Rec #:50359149 (+COV) Soln.date: 2022-Mar-09_02:29:54 # obs: 34 (2003-2020) IAU76/J2000 helio. ecliptic osc. elements (au, days, deg., period=Julian yrs): EPOCH= 2457518.5 ! 2016-May-10.00 (TDB) Residual RMS= .30102 EC= .5309101028239022 QR= 38.23329642427787 TP= 2340362.5948755629 OM= 245.3511273265536 W= 16.50651088952509 IN= 24.36521745483206 A= 81.50526509831221 MA= 156.9241413882503 ADIST= 124.7772337723465 PER= 735.8456 N= .001339447 ANGMOM= .131606445 DAN= 38.78766 DDN= 119.21652 L= 260.457692 B= 6.7314518 MOID= 37.22499847 TP= 1695-Aug-05.0948755629 Asteroid physical parameters (km, seconds, rotational period in hours): GM= n.a. RAD= n.a. ROTPER= n.a. H= 3.94 G= .150 B-V= n.a. ALBEDO= n.a. STYP= n.a. ASTEROID comments: 1: soln ref.= JPL#8, OCC=6 2: source=ORB ******************************************************************************* ******************************************************************************* Ephemeris / WWW_USER Fri Dec 12 21:17:20 2025 Pasadena, USA / Horizons ******************************************************************************* Target body name: (2018 VG18) {source: JPL#8} Center body name: Earth (399) {source: DE441} Center-site name: GEOCENTRIC ******************************************************************************* Start time : A.D. 2063-Apr-15 00:00:00.0000 UT Stop time : A.D. 2063-May-01 00:00:00.0000 UT Step-size : 1440 minutes ******************************************************************************* Target pole/equ : undefined Target radii : undefined Center geodetic : 0.0, 0.0, -6378.137 {E-lon(deg),Lat(deg),Alt(km)} Center cylindric: 0.0, 0.0, 0.0 {E-lon(deg),Dxy(km),Dz(km)} Center pole/equ : ITRF93 {East-longitude positive} Center radii : 6378.137, 6378.137, 6356.752 km {Equator_a, b, pole_c} Target primary : Sun Vis. interferer : MOON (R_eq= 1737.400) km {source: DE441} Rel. light bend : Sun {source: DE441} Rel. lght bnd GM: 1.3271E+11 km^3/s^2 Small-body perts: Yes {source: SB441-N16} Atmos refraction: NO (AIRLESS) RA format : HMS Time format : CAL Calendar mode : Mixed Julian/Gregorian EOP file : eop.251212.p260310 EOP coverage : DATA-BASED 1962-JAN-20 TO 2025-DEC-12. PREDICTS-> 2026-MAR-09 Units conversion: 1 au= 149597870.700 km, c= 299792.458 km/s, 1 day= 86400.0 s Table cut-offs 1: Elevation (-90.0deg=NO ),Airmass (>38.000=NO), Daylight (NO ) Table cut-offs 2: Solar elongation ( 0.0,180.0=NO ),Local Hour Angle( 0.0=NO ) Table cut-offs 3: RA/DEC angular rate ( 0.0=NO ) ******************************************************************************* Initial IAU76/J2000 heliocentric ecliptic osculating elements (au, days, deg.): EPOCH= 2457518.5 ! 2016-May-10.00 (TDB) Residual RMS= .30102 EC= .5309101028239022 QR= 38.23329642427787 TP= 2340362.5948755629 OM= 245.3511273265536 W= 16.50651088952509 IN= 24.36521745483206 Equivalent ICRF heliocentric cartesian coordinates (au, au/d): X= 3.652840495494810E+01 Y= 1.106732759403852E+02 Z= 4.017691139620635E+01 VX=-8.860239099775528E-04 VY= 5.732580964773865E-04 VZ=-2.377757922880476E-04 Asteroid physical parameters (km, seconds, rotational period in hours): GM= n.a. RAD= n.a. ROTPER= n.a. H= 3.94 G= .150 B-V= n.a. ALBEDO= n.a. STYP= n.a. ******************************************************************************* Date__(UT)__HR:MN r rdot ************************************************** $$SOE 2063-Apr-15 00:00 124.8984835603 0.0002672 2063-Apr-16 00:00 124.8984837080 0.0002443 2063-Apr-17 00:00 124.8984838425 0.0002216 2063-Apr-18 00:00 124.8984839639 0.0001989 2063-Apr-19 00:00 124.8984840723 0.0001765 2063-Apr-20 00:00 124.8984841677 0.0001541 2063-Apr-21 00:00 124.8984842503 0.0001319 2063-Apr-22 00:00 124.8984843200 0.0001097 2063-Apr-23 00:00 124.8984843771 0.0000877 2063-Apr-24 00:00 124.8984844214 0.0000658 2063-Apr-25 00:00 124.8984844531 0.0000441 2063-Apr-26 00:00 124.8984844723 0.0000224 2063-Apr-27 00:00 124.8984844790 0.0000009 2063-Apr-28 00:00 124.8984844734 -0.0000205 2063-Apr-29 00:00 124.8984844553 -0.0000419 2063-Apr-30 00:00 124.8984844250 -0.0000631 2063-May-01 00:00 124.8984843825 -0.0000841 $$EOE ******************************************************************************* Column meaning: TIME Times PRIOR to 1962 are UT1, a mean-solar time closely related to the prior but now-deprecated GMT. Times AFTER 1962 are in UTC, the current civil or "wall-clock" time-scale. UTC is kept within 0.9 seconds of UT1 using integer leap-seconds for 1972 and later years. Conversion from the internal Barycentric Dynamical Time (TDB) of solar system dynamics to the non-uniform civil UT time-scale requested for output has not been determined for UTC times after the next July or January 1st. Therefore, the last known leap-second is used as a constant over future intervals. Time tags refer to the UT time-scale conversion from TDB on Earth regardless of observer location within the solar system, although clock rates may differ due to the local gravity field and no analog to "UT" may be defined for that location. Any 'b' symbol in the 1st-column denotes a B.C. date. First-column blank (" ") denotes an A.D. date. CALENDAR SYSTEM Mixed calendar mode was active such that calendar dates after AD 1582-Oct-15 (if any) are in the modern Gregorian system. Dates prior to 1582-Oct-5 (if any) are in the Julian calendar system, which is automatically extended for dates prior to its adoption on 45-Jan-1 BC. The Julian calendar is useful for matching historical dates. The Gregorian calendar more accurately corresponds to the Earth's orbital motion and seasons. A "Gregorian-only" calendar mode is available if such physical events are the primary interest. NOTE: "n.a." in output means quantity "not available" at the print-time. 'r rdot' = The Sun's apparent range ("r", light-time aberrated) and range-rate ("rdot") relative to the target center, as seen by the observer. A positive "rdot" means the target center was moving away from the Sun, negative means moving toward the Sun. Units: AU and KM/S Computations by ... Solar System Dynamics Group, Horizons On-Line Ephemeris System 4800 Oak Grove Drive, Jet Propulsion Laboratory Pasadena, CA 91109 USA General site: https://ssd.jpl.nasa.gov/ Mailing list: https://ssd.jpl.nasa.gov/email_list.html System news : https://ssd.jpl.nasa.gov/horizons/news.html User Guide : https://ssd.jpl.nasa.gov/horizons/manual.html Connect : browser https://ssd.jpl.nasa.gov/horizons/app.html#/x API https://ssd-api.jpl.nasa.gov/doc/horizons.html command-line telnet ssd.jpl.nasa.gov 6775 e-mail/batch https://ssd.jpl.nasa.gov/ftp/ssd/horizons_batch.txt scripts https://ssd.jpl.nasa.gov/ftp/ssd/SCRIPTS Author : Jon.D.Giorgini@jpl.nasa.gov ******************************************************************************* !$$SOF COMMAND = '2018 VG18' QUANTITIES = '19' START_TIME = '2063-Apr-15' STEP_SIZE = '1 day' STOP_TIME = '2063-May-01'